Time,TemperatureF,DewpointF,PressureIn,WindDirection,WindDirectionDegrees,WindSpeedMPH,WindSpeedGustMPH,Humidity,HourlyPrecipIn,Conditions,Clouds,dailyrainin,SoftwareType,DateUTC
2013-09-26 00:04:00,45.2,43.9,30.05,West,265,0.0,0.0,95,0.00,,,0.00,Wunderground v.1.15,2013-09-26 07:04:00,
2013-09-26 00:09:00,45.1,43.8,30.05,West,265,0.0,0.0,95,0.00,,,0.00,Wunderground v.1.15,2013-09-26 07:09:00,
2013-09-26 00:14:00,45.0,43.9,30.06,West,265,0.0,0.0,96,0.00,,,0.00,Wunderground v.1.15,2013-09-26 07:14:00,
2013-09-26 00:20:00,44.9,43.8,30.06,West,265,0.0,0.0,96,0.00,,,0.00,Wunderground v.1.15,2013-09-26 07:20:00,
2013-09-26 00:25:00,44.9,43.8,30.06,West,265,0.0,0.0,96,0.00,,,0.00,Wunderground v.1.15,2013-09-26 07:25:00,
2013-09-26 00:30:00,44.7,43.6,30.05,West,265,0.0,0.0,96,0.00,,,0.00,Wunderground v.1.15,2013-09-26 07:30:00,
2013-09-26 00:35:00,44.6,43.3,30.06,West,265,0.0,0.0,95,0.00,,,0.00,Wunderground v.1.15,2013-09-26 07:35:00,
2013-09-26 00:41:00,44.5,43.2,30.06,West,265,0.0,0.0,95,0.00,,,0.00,Wunderground v.1.15,2013-09-26 07:41:00,
2013-09-26 00:47:00,44.3,43.0,30.06,West,265,0.0,0.0,95,0.00,,,0.00,Wunderground v.1.15,2013-09-26 07:47:00,
2013-09-26 00:54:00,44.1,42.8,30.06,West,265,0.0,0.0,95,0.00,,,0.00,Wunderground v.1.15,2013-09-26 07:54:00,
2013-09-26 00:59:00,43.9,42.6,30.06,West,265,0.0,1.0,95,0.00,,,0.00,Wunderground v.1.15,2013-09-26 07:59:00,
2013-09-26 01:04:00,43.8,42.5,30.06,West,265,0.0,0.0,95,0.00,,,0.00,Wunderground v.1.15,2013-09-26 08:04:00,
2013-09-26 01:10:00,43.8,42.5,30.06,West,265,0.0,0.0,95,0.00,,,0.00,Wunderground v.1.15,2013-09-26 08:10:00,
2013-09-26 01:15:00,43.7,42.6,30.06,West,265,0.0,0.0,96,0.00,,,0.00,Wunderground v.1.15,2013-09-26 08:15:00,
2013-09-26 01:21:00,43.6,42.5,30.06,West,265,0.0,0.0,96,0.00,,,0.00,Wunderground v.1.15,2013-09-26 08:21:00,
2013-09-26 01:27:00,43.5,42.2,30.06,West,265,0.0,0.0,95,0.00,,,0.00,Wunderground v.1.15,2013-09-26 08:27:00,
2013-09-26 01:32:00,43.4,42.3,30.06,West,265,0.0,0.0,96,0.00,,,0.00,Wunderground v.1.15,2013-09-26 08:32:00,
2013-09-26 01:37:00,43.4,42.3,30.06,West,265,0.0,0.0,96,0.00,,,0.00,Wunderground v.1.15,2013-09-26 08:37:00,
2013-09-26 01:44:00,43.3,42.2,30.06,West,265,0.0,0.0,96,0.00,,,0.00,Wunderground v.1.15,2013-09-26 08:44:00,
2013-09-26 01:49:00,43.3,42.2,30.06,West,265,0.0,0.0,96,0.00,,,0.00,Wunderground v.1.15,2013-09-26 08:49:00,
2013-09-26 01:55:00,43.2,42.1,30.06,West,265,0.0,0.0,96,0.00,,,0.00,Wunderground v.1.15,2013-09-26 08:55:00,
2013-09-26 02:01:00,43.1,42.0,30.06,West,265,0.0,0.0,96,0.00,,,0.00,Wunderground v.1.15,2013-09-26 09:01:00,
2013-09-26 02:06:00,43.0,41.9,30.06,West,265,0.0,0.0,96,0.00,,,0.00,Wunderground v.1.15,2013-09-26 09:06:00,
2013-09-26 02:11:00,42.9,41.8,30.06,West,265,0.0,1.0,96,0.00,,,0.00,Wunderground v.1.15,2013-09-26 09:11:00,
2013-09-26 02:17:00,42.8,41.7,30.06,West,265,0.0,2.0,96,0.00,,,0.00,Wunderground v.1.15,2013-09-26 09:17:00,
2013-09-26 02:22:00,42.7,41.6,30.06,West,265,0.0,2.0,96,0.00,,,0.00,Wunderground v.1.15,2013-09-26 09:22:00,
2013-09-26 02:29:00,42.6,41.5,30.06,West,265,1.0,2.0,96,0.00,,,0.00,Wunderground v.1.15,2013-09-26 09:29:00,
2013-09-26 02:34:00,42.7,41.6,30.06,West,265,1.0,2.0,96,0.00,,,0.00,Wunderground v.1.15,2013-09-26 09:34:00,
2013-09-26 02:39:00,42.7,41.6,30.06,West,265,0.0,2.0,96,0.00,,,0.00,Wunderground v.1.15,2013-09-26 09:39:00,
2013-09-26 02:44:00,42.7,41.6,30.06,West,265,1.0,1.0,96,0.00,,,0.00,Wunderground v.1.15,2013-09-26 09:44:00,
2013-09-26 02:50:00,42.6,41.5,30.06,West,265,1.0,1.0,96,0.00,,,0.00,Wunderground v.1.15,2013-09-26 09:50:00,
2013-09-26 02:56:00,42.6,41.5,30.06,West,265,1.0,1.0,96,0.00,,,0.00,Wunderground v.1.15,2013-09-26 09:56:00,
2013-09-26 03:01:00,42.5,41.4,30.06,West,265,1.0,1.0,96,0.00,,,0.00,Wunderground v.1.15,2013-09-26 10:01:00,
2013-09-26 03:07:00,42.4,41.3,30.06,West,265,0.0,0.0,96,0.00,,,0.00,Wunderground v.1.15,2013-09-26 10:07:00,
2013-09-26 03:12:00,42.3,41.2,30.06,West,265,0.0,0.0,96,0.00,,,0.00,Wunderground v.1.15,2013-09-26 10:12:00,
2013-09-26 03:19:00,42.2,41.1,30.06,West,265,0.0,0.0,96,0.00,,,0.00,Wunderground v.1.15,2013-09-26 10:19:00,
2013-09-26 03:24:00,42.1,41.0,30.06,West,265,0.0,0.0,96,0.00,,,0.00,Wunderground v.1.15,2013-09-26 10:24:00,
2013-09-26 03:29:00,42.0,40.9,30.06,West,265,0.0,0.0,96,0.00,,,0.00,Wunderground v.1.15,2013-09-26 10:29:00,
2013-09-26 03:34:00,41.9,40.8,30.06,West,265,0.0,0.0,96,0.00,,,0.00,Wunderground v.1.15,2013-09-26 10:34:00,
2013-09-26 03:40:00,41.9,40.8,30.06,West,265,0.0,0.0,96,0.00,,,0.00,Wunderground v.1.15,2013-09-26 10:40:00,
2013-09-26 03:45:00,41.8,40.7,30.06,West,265,0.0,0.0,96,0.00,,,0.00,Wunderground v.1.15,2013-09-26 10:45:00,
2013-09-26 03:51:00,41.8,40.7,30.06,West,265,0.0,0.0,96,0.00,,,0.00,Wunderground v.1.15,2013-09-26 10:51:00,
2013-09-26 03:56:00,41.7,40.6,30.06,West,265,0.0,0.0,96,0.00,,,0.00,Wunderground v.1.15,2013-09-26 10:56:00,
2013-09-26 04:02:00,41.7,40.6,30.06,West,265,0.0,0.0,96,0.00,,,0.00,Wunderground v.1.15,2013-09-26 11:02:00,
2013-09-26 04:07:00,41.6,40.5,30.06,West,265,0.0,0.0,96,0.00,,,0.00,Wunderground v.1.15,2013-09-26 11:07:00,
2013-09-26 04:14:00,41.5,40.4,30.06,West,265,0.0,0.0,96,0.00,,,0.00,Wunderground v.1.15,2013-09-26 11:14:00,
2013-09-26 04:19:00,41.5,40.4,30.06,West,265,0.0,0.0,96,0.00,,,0.00,Wunderground v.1.15,2013-09-26 11:19:00,
2013-09-26 04:24:00,41.3,40.2,30.06,West,265,0.0,0.0,96,0.00,,,0.00,Wunderground v.1.15,2013-09-26 11:24:00,
2013-09-26 04:29:00,41.3,40.2,30.06,West,265,0.0,0.0,96,0.00,,,0.00,Wunderground v.1.15,2013-09-26 11:29:00,
2013-09-26 04:34:00,41.1,40.0,30.06,West,265,0.0,0.0,96,0.00,,,0.00,Wunderground v.1.15,2013-09-26 11:34:00,
2013-09-26 04:39:00,41.0,39.9,30.06,West,265,0.0,0.0,96,0.00,,,0.00,Wunderground v.1.15,2013-09-26 11:39:00,
2013-09-26 04:45:00,40.9,39.8,30.06,West,265,0.0,0.0,96,0.00,,,0.00,Wunderground v.1.15,2013-09-26 11:45:00,
2013-09-26 04:50:00,40.9,39.8,30.06,West,265,0.0,0.0,96,0.00,,,0.00,Wunderground v.1.15,2013-09-26 11:50:00,
2013-09-26 04:56:00,40.9,39.8,30.07,West,265,0.0,0.0,96,0.00,,,0.00,Wunderground v.1.15,2013-09-26 11:56:00,
2013-09-26 05:01:00,40.9,39.8,30.07,West,265,0.0,0.0,96,0.00,,,0.00,Wunderground v.1.15,2013-09-26 12:01:00,
2013-09-26 05:06:00,40.8,39.7,30.07,West,265,0.0,0.0,96,0.00,,,0.00,Wunderground v.1.15,2013-09-26 12:06:00,
2013-09-26 05:12:00,40.8,39.7,30.07,West,265,0.0,0.0,96,0.00,,,0.00,Wunderground v.1.15,2013-09-26 12:12:00,
2013-09-26 05:17:00,40.8,39.7,30.07,West,265,0.0,0.0,96,0.00,,,0.00,Wunderground v.1.15,2013-09-26 12:17:00,
2013-09-26 05:22:00,40.7,39.6,30.08,West,265,0.0,0.0,96,0.00,,,0.00,Wunderground v.1.15,2013-09-26 12:22:00,
2013-09-26 05:29:00,40.6,39.5,30.08,West,265,0.0,0.0,96,0.00,,,0.00,Wunderground v.1.15,2013-09-26 12:29:00,
2013-09-26 05:34:00,40.7,39.9,30.08,West,265,0.0,0.0,97,0.00,,,0.00,Wunderground v.1.15,2013-09-26 12:34:00,
2013-09-26 05:39:00,40.8,40.0,30.08,West,265,0.0,0.0,97,0.00,,,0.00,Wunderground v.1.15,2013-09-26 12:39:00,
2013-09-26 05:45:00,41.0,40.2,30.08,West,265,0.0,0.0,97,0.00,,,0.00,Wunderground v.1.15,2013-09-26 12:45:00,
2013-09-26 05:51:00,41.4,40.6,30.08,West,265,0.0,0.0,97,0.00,,,0.00,Wunderground v.1.15,2013-09-26 12:51:00,
2013-09-26 05:56:00,41.5,40.7,30.08,West,265,0.0,0.0,97,0.00,,,0.00,Wunderground v.1.15,2013-09-26 12:56:00,
2013-09-26 06:02:00,41.8,41.0,30.08,West,265,0.0,0.0,97,0.00,,,0.00,Wunderground v.1.15,2013-09-26 13:02:00,
2013-09-26 06:07:00,42.1,41.3,30.09,West,265,0.0,1.0,97,0.00,,,0.00,Wunderground v.1.15,2013-09-26 13:07:00,
2013-09-26 06:14:00,42.4,41.9,30.09,West,265,0.0,1.0,98,0.00,,,0.00,Wunderground v.1.15,2013-09-26 13:14:00,
2013-09-26 06:19:00,42.7,42.2,30.09,West,265,0.0,0.0,98,0.00,,,0.00,Wunderground v.1.15,2013-09-26 13:19:00,
2013-09-26 06:24:00,42.8,42.3,30.09,West,265,0.0,0.0,98,0.00,,,0.00,Wunderground v.1.15,2013-09-26 13:24:00,
2013-09-26 06:30:00,43.0,42.5,30.09,West,265,0.0,1.0,98,0.00,,,0.00,Wunderground v.1.15,2013-09-26 13:30:00,
2013-09-26 06:35:00,43.1,42.6,30.09,West,265,0.0,0.0,98,0.00,,,0.00,Wunderground v.1.15,2013-09-26 13:35:00,
2013-09-26 06:41:00,43.2,42.7,30.09,West,265,0.0,0.0,98,0.00,,,0.00,Wunderground v.1.15,2013-09-26 13:41:00,
2013-09-26 06:46:00,43.3,42.8,30.09,West,265,0.0,0.0,98,0.00,,,0.00,Wunderground v.1.15,2013-09-26 13:46:00,
2013-09-26 06:52:00,43.3,42.8,30.09,West,265,0.0,0.0,98,0.00,,,0.00,Wunderground v.1.15,2013-09-26 13:52:00,
2013-09-26 06:59:00,43.2,42.4,30.09,West,265,0.0,0.0,97,0.00,,,0.00,Wunderground v.1.15,2013-09-26 13:59:00,
2013-09-26 07:05:00,43.2,42.4,30.10,West,265,0.0,0.0,97,0.00,,,0.00,Wunderground v.1.15,2013-09-26 14:05:00,
2013-09-26 07:10:00,43.1,42.3,30.09,West,265,0.0,0.0,97,0.00,,,0.00,Wunderground v.1.15,2013-09-26 14:10:00,
2013-09-26 07:15:00,43.1,42.3,30.09,West,265,0.0,0.0,97,0.00,,,0.00,Wunderground v.1.15,2013-09-26 14:15:00,
2013-09-26 07:21:00,43.2,42.4,30.10,West,265,0.0,0.0,97,0.00,,,0.00,Wunderground v.1.15,2013-09-26 14:21:00,
2013-09-26 07:26:00,43.1,42.3,30.10,West,265,0.0,0.0,97,0.00,,,0.00,Wunderground v.1.15,2013-09-26 14:26:00,
2013-09-26 07:32:00,43.1,42.3,30.10,West,265,0.0,0.0,97,0.00,,,0.00,Wunderground v.1.15,2013-09-26 14:32:00,
2013-09-26 07:37:00,43.2,42.4,30.10,West,265,0.0,0.0,97,0.00,,,0.00,Wunderground v.1.15,2013-09-26 14:37:00,
2013-09-26 07:44:00,43.3,42.5,30.10,West,265,0.0,0.0,97,0.00,,,0.00,Wunderground v.1.15,2013-09-26 14:44:00,
2013-09-26 07:49:00,43.4,42.6,30.10,West,265,0.0,0.0,97,0.00,,,0.00,Wunderground v.1.15,2013-09-26 14:49:00,
2013-09-26 07:54:00,43.5,42.7,30.10,West,265,0.0,0.0,97,0.00,,,0.00,Wunderground v.1.15,2013-09-26 14:54:00,
2013-09-26 07:59:00,43.7,42.9,30.10,West,265,0.0,0.0,97,0.00,,,0.00,Wunderground v.1.15,2013-09-26 14:59:00,
2013-09-26 08:04:00,43.9,43.4,30.10,West,265,0.0,0.0,98,0.00,,,0.00,Wunderground v.1.15,2013-09-26 15:04:00,
2013-09-26 08:09:00,44.0,43.5,30.10,West,265,0.0,0.0,98,0.00,,,0.00,Wunderground v.1.15,2013-09-26 15:09:00,
2013-09-26 08:15:00,44.2,43.7,30.10,West,265,0.0,0.0,98,0.00,,,0.00,Wunderground v.1.15,2013-09-26 15:15:00,
2013-09-26 08:20:00,44.5,44.0,30.10,West,265,0.0,0.0,98,0.00,,,0.00,Wunderground v.1.15,2013-09-26 15:20:00,
2013-09-26 08:26:00,44.8,44.3,30.10,West,265,0.0,0.0,98,0.00,,,0.00,Wunderground v.1.15,2013-09-26 15:26:00,
2013-09-26 08:31:00,45.0,44.5,30.10,West,265,0.0,0.0,98,0.00,,,0.00,Wunderground v.1.15,2013-09-26 15:31:00,
2013-09-26 08:36:00,45.2,44.7,30.11,West,265,0.0,0.0,98,0.00,,,0.00,Wunderground v.1.15,2013-09-26 15:36:00,
2013-09-26 08:42:00,45.5,45.0,30.11,West,265,0.0,0.0,98,0.00,,,0.00,Wunderground v.1.15,2013-09-26 15:42:00,
2013-09-26 08:47:00,45.7,45.2,30.11,West,265,0.0,0.0,98,0.00,,,0.00,Wunderground v.1.15,2013-09-26 15:47:00,
2013-09-26 08:53:00,46.0,45.5,30.11,West,265,0.0,1.0,98,0.00,,,0.00,Wunderground v.1.15,2013-09-26 15:53:00,
2013-09-26 08:59:00,46.1,45.6,30.11,West,265,0.0,0.0,98,0.00,,,0.00,Wunderground v.1.15,2013-09-26 15:59:00,
2013-09-26 09:04:00,46.3,45.8,30.11,West,265,0.0,0.0,98,0.00,,,0.00,Wunderground v.1.15,2013-09-26 16:04:00,
2013-09-26 09:09:00,46.5,46.0,30.11,West,265,0.0,0.0,98,0.00,,,0.00,Wunderground v.1.15,2013-09-26 16:09:00,
2013-09-26 09:14:00,46.7,46.2,30.11,West,265,0.0,0.0,98,0.00,,,0.00,Wunderground v.1.15,2013-09-26 16:14:00,
2013-09-26 09:20:00,47.0,46.5,30.12,West,265,0.0,0.0,98,0.00,,,0.00,Wunderground v.1.15,2013-09-26 16:20:00,
2013-09-26 09:26:00,47.6,47.1,30.12,West,265,0.0,0.0,98,0.00,,,0.00,Wunderground v.1.15,2013-09-26 16:26:00,
2013-09-26 09:31:00,48.1,47.6,30.12,West,265,0.0,0.0,98,0.00,,,0.00,Wunderground v.1.15,2013-09-26 16:31:00,
2013-09-26 09:37:00,48.5,48.0,30.12,West,265,0.0,0.0,98,0.00,,,0.00,Wunderground v.1.15,2013-09-26 16:37:00,
2013-09-26 09:42:00,48.8,48.3,30.12,West,265,0.0,0.0,98,0.00,,,0.00,Wunderground v.1.15,2013-09-26 16:42:00,
2013-09-26 09:49:00,49.2,48.7,30.12,West,265,0.0,2.0,98,0.00,,,0.00,Wunderground v.1.15,2013-09-26 16:49:00,
2013-09-26 09:54:00,49.4,48.9,30.12,West,265,1.0,4.0,98,0.00,,,0.00,Wunderground v.1.15,2013-09-26 16:54:00,
2013-09-26 10:00:00,49.4,48.9,30.12,West,265,1.0,4.0,98,0.00,,,0.00,Wunderground v.1.15,2013-09-26 17:00:00,
2013-09-26 10:06:00,49.6,49.1,30.12,West,267,2.0,4.0,98,0.00,,,0.00,Wunderground v.1.15,2013-09-26 17:06:00,
2013-09-26 10:12:00,49.8,49.3,30.12,West,267,3.0,4.0,98,0.00,,,0.00,Wunderground v.1.15,2013-09-26 17:12:00,
2013-09-26 10:17:00,50.0,49.5,30.12,West,267,2.0,4.0,98,0.00,,,0.00,Wunderground v.1.15,2013-09-26 17:17:00,
2013-09-26 10:22:00,50.3,49.8,30.12,West,266,2.0,4.0,98,0.00,,,0.00,Wunderground v.1.15,2013-09-26 17:22:00,
2013-09-26 10:29:00,50.7,50.2,30.13,WSW,254,2.0,5.0,98,0.00,,,0.00,Wunderground v.1.15,2013-09-26 17:29:00,
2013-09-26 10:34:00,51.1,50.3,30.12,WSW,254,1.0,1.0,97,0.00,,,0.00,Wunderground v.1.15,2013-09-26 17:34:00,
2013-09-26 10:40:00,51.4,50.6,30.13,WSW,254,1.0,2.0,97,0.00,,,0.00,Wunderground v.1.15,2013-09-26 17:40:00,
2013-09-26 10:46:00,51.9,50.8,30.13,WSW,254,1.0,1.0,96,0.00,,,0.00,Wunderground v.1.15,2013-09-26 17:46:00,
2013-09-26 10:51:00,52.6,51.5,30.13,WSW,254,0.0,2.0,96,0.00,,,0.00,Wunderground v.1.15,2013-09-26 17:51:00,
2013-09-26 10:57:00,53.8,52.4,30.12,West,261,0.0,1.0,95,0.00,,,0.00,Wunderground v.1.15,2013-09-26 17:57:00,
2013-09-26 11:02:00,55.0,52.4,30.13,West,263,1.0,1.0,91,0.00,,,0.00,Wunderground v.1.15,2013-09-26 18:02:00,
2013-09-26 11:07:00,56.2,52.7,30.13,WNW,298,2.0,4.0,88,0.00,,,0.00,Wunderground v.1.15,2013-09-26 18:07:00,
2013-09-26 11:14:00,57.6,53.1,30.13,WSW,250,3.0,3.0,85,0.00,,,0.00,Wunderground v.1.15,2013-09-26 18:14:00,
2013-09-26 11:19:00,58.5,54.0,30.13,WSW,250,2.0,5.0,85,0.00,,,0.00,Wunderground v.1.15,2013-09-26 18:19:00,
2013-09-26 11:24:00,58.6,52.8,30.13,West,260,3.0,3.0,81,0.00,,,0.00,Wunderground v.1.15,2013-09-26 18:24:00,
2013-09-26 11:29:00,58.6,53.1,30.13,SW,235,3.0,5.0,82,0.00,,,0.00,Wunderground v.1.15,2013-09-26 18:29:00,
2013-09-26 11:35:00,58.9,53.1,30.13,West,270,2.0,6.0,81,0.00,,,0.00,Wunderground v.1.15,2013-09-26 18:35:00,
2013-09-26 11:40:00,59.6,53.4,30.13,NNW,347,3.0,6.0,80,0.00,,,0.00,Wunderground v.1.15,2013-09-26 18:40:00,
2013-09-26 11:46:00,60.2,53.3,30.13,WNW,298,3.0,5.0,78,0.00,,,0.00,Wunderground v.1.15,2013-09-26 18:46:00,
2013-09-26 11:51:00,60.1,52.1,30.13,West,272,3.0,5.0,75,0.00,,,0.00,Wunderground v.1.15,2013-09-26 18:51:00,
2013-09-26 11:56:00,60.3,53.1,30.13,NW,310,3.0,5.0,77,0.00,,,0.00,Wunderground v.1.15,2013-09-26 18:56:00,
2013-09-26 12:02:00,61.0,53.0,30.13,WNW,292,3.0,5.0,75,0.00,,,0.00,Wunderground v.1.15,2013-09-26 19:02:00,
2013-09-26 12:07:00,61.7,54.1,30.13,NNW,341,3.0,5.0,76,0.00,,,0.00,Wunderground v.1.15,2013-09-26 19:07:00,
2013-09-26 12:14:00,62.3,52.8,30.13,West,267,3.0,3.0,71,0.00,,,0.00,Wunderground v.1.15,2013-09-26 19:14:00,
2013-09-26 12:19:00,63.0,54.2,30.13,WNW,292,2.0,3.0,73,0.00,,,0.00,Wunderground v.1.15,2013-09-26 19:19:00,
2013-09-26 12:24:00,63.9,54.3,30.13,WSW,252,2.0,4.0,71,0.00,,,0.00,Wunderground v.1.15,2013-09-26 19:24:00,
2013-09-26 12:30:00,64.1,53.7,30.13,SW,228,3.0,7.0,69,0.00,,,0.00,Wunderground v.1.15,2013-09-26 19:30:00,
2013-09-26 12:36:00,64.2,54.2,30.13,WNW,290,4.0,4.0,70,0.00,,,0.00,Wunderground v.1.15,2013-09-26 19:36:00,
2013-09-26 12:41:00,64.8,54.0,30.13,WSW,244,4.0,6.0,68,0.00,,,0.00,Wunderground v.1.15,2013-09-26 19:41:00,
2013-09-26 12:46:00,65.3,53.6,30.13,SW,232,3.0,5.0,66,0.00,,,0.00,Wunderground v.1.15,2013-09-26 19:46:00,
2013-09-26 12:52:00,65.4,53.3,30.13,WSW,245,4.0,7.0,65,0.00,,,0.00,Wunderground v.1.15,2013-09-26 19:52:00,
2013-09-26 12:57:00,65.6,53.1,30.13,SW,235,4.0,5.0,64,0.00,,,0.00,Wunderground v.1.15,2013-09-26 19:57:00,
2013-09-26 13:04:00,66.1,53.6,30.13,WSW,252,2.0,3.0,64,0.00,,,0.00,Wunderground v.1.15,2013-09-26 20:04:00,
2013-09-26 13:09:00,66.8,53.8,30.13,SW,231,2.0,5.0,63,0.00,,,0.00,Wunderground v.1.15,2013-09-26 20:09:00,
2013-09-26 13:15:00,67.2,53.3,30.13,SW,229,4.0,5.0,61,0.00,,,0.00,Wunderground v.1.15,2013-09-26 20:15:00,
2013-09-26 13:20:00,67.2,53.7,30.13,WSW,256,3.0,5.0,62,0.00,,,0.00,Wunderground v.1.15,2013-09-26 20:20:00,
2013-09-26 13:26:00,67.5,52.7,30.13,WNW,288,3.0,5.0,59,0.00,,,0.00,Wunderground v.1.15,2013-09-26 20:26:00,
2013-09-26 13:31:00,67.6,51.3,30.13,SW,225,3.0,8.0,56,0.00,,,0.00,Wunderground v.1.15,2013-09-26 20:31:00,
2013-09-26 13:37:00,67.2,53.3,30.13,SW,227,4.0,4.0,61,0.00,,,0.00,Wunderground v.1.15,2013-09-26 20:37:00,
2013-09-26 13:42:00,66.8,51.5,30.12,SW,229,4.0,5.0,58,0.00,,,0.00,Wunderground v.1.15,2013-09-26 20:42:00,
2013-09-26 13:49:00,66.9,52.6,30.12,WSW,246,4.0,7.0,60,0.00,,,0.00,Wunderground v.1.15,2013-09-26 20:49:00,
2013-09-26 13:54:00,66.3,52.0,30.12,WNW,284,3.0,4.0,60,0.00,,,0.00,Wunderground v.1.15,2013-09-26 20:54:00,
2013-09-26 14:00:00,66.4,53.0,30.12,West,277,3.0,6.0,62,0.00,,,0.00,Wunderground v.1.15,2013-09-26 21:00:00,
2013-09-26 14:06:00,66.5,52.2,30.12,WSW,239,4.0,7.0,60,0.00,,,0.00,Wunderground v.1.15,2013-09-26 21:06:00,
2013-09-26 14:11:00,66.8,53.4,30.12,West,271,3.0,7.0,62,0.00,,,0.00,Wunderground v.1.15,2013-09-26 21:11:00,
2013-09-26 14:17:00,67.3,52.5,30.11,WNW,296,3.0,5.0,59,0.00,,,0.00,Wunderground v.1.15,2013-09-26 21:17:00,
2013-09-26 14:22:00,67.8,52.9,30.11,West,275,2.0,5.0,59,0.00,,,0.00,Wunderground v.1.15,2013-09-26 21:22:00,
2013-09-26 14:29:00,67.9,51.1,30.11,SW,228,3.0,6.0,55,0.00,,,0.00,Wunderground v.1.15,2013-09-26 21:29:00,
2013-09-26 14:34:00,67.9,52.1,30.11,WNW,302,3.0,4.0,57,0.00,,,0.00,Wunderground v.1.15,2013-09-26 21:34:00,
2013-09-26 14:39:00,68.0,51.7,30.11,NW,315,3.0,9.0,56,0.00,,,0.00,Wunderground v.1.15,2013-09-26 21:39:00,
2013-09-26 14:45:00,68.0,53.1,30.11,SW,236,4.0,4.0,59,0.00,,,0.00,Wunderground v.1.15,2013-09-26 21:45:00,
2013-09-26 14:50:00,67.7,52.4,30.11,WNW,292,3.0,4.0,58,0.00,,,0.00,Wunderground v.1.15,2013-09-26 21:50:00,
2013-09-26 14:56:00,67.7,52.9,30.12,West,276,4.0,7.0,59,0.00,,,0.00,Wunderground v.1.15,2013-09-26 21:56:00,
2013-09-26 15:01:00,67.8,52.0,30.12,NW,323,5.0,7.0,57,0.00,,,0.00,Wunderground v.1.15,2013-09-26 22:01:00,
2013-09-26 15:07:00,67.6,51.8,30.12,West,273,5.0,8.0,57,0.00,,,0.00,Wunderground v.1.15,2013-09-26 22:07:00,
2013-09-26 15:12:00,67.6,51.8,30.11,SW,223,4.0,8.0,57,0.00,,,0.00,Wunderground v.1.15,2013-09-26 22:12:00,
2013-09-26 15:18:00,67.3,52.0,30.11,SW,230,4.0,9.0,58,0.00,,,0.00,Wunderground v.1.15,2013-09-26 22:18:00,
2013-09-26 15:24:00,67.0,51.7,30.11,NW,320,4.0,4.0,58,0.00,,,0.00,Wunderground v.1.15,2013-09-26 22:24:00,
2013-09-26 15:29:00,66.2,51.9,30.11,SW,229,4.0,7.0,60,0.00,,,0.00,Wunderground v.1.15,2013-09-26 22:29:00,
2013-09-26 15:34:00,65.1,51.3,30.12,WNW,299,5.0,5.0,61,0.00,,,0.00,Wunderground v.1.15,2013-09-26 22:34:00,
2013-09-26 15:39:00,64.4,51.1,30.12,NW,315,5.0,12.0,62,0.00,,,0.00,Wunderground v.1.15,2013-09-26 22:39:00,
2013-09-26 15:45:00,63.6,51.6,30.12,WNW,297,5.0,6.0,65,0.00,,,0.00,Wunderground v.1.15,2013-09-26 22:45:00,
2013-09-26 15:50:00,63.0,51.5,30.12,NW,316,4.0,7.0,66,0.00,,,0.00,Wunderground v.1.15,2013-09-26 22:50:00,
2013-09-26 15:55:00,62.4,51.3,30.11,WSW,237,4.0,5.0,67,0.00,,,0.00,Wunderground v.1.15,2013-09-26 22:55:00,
2013-09-26 16:01:00,61.8,50.7,30.12,NW,305,5.0,8.0,67,0.00,,,0.00,Wunderground v.1.15,2013-09-26 23:01:00,
2013-09-26 16:07:00,61.3,50.6,30.12,WNW,300,5.0,8.0,68,0.00,,,0.00,Wunderground v.1.15,2013-09-26 23:07:00,
2013-09-26 16:12:00,61.1,50.5,30.12,NNE,12,4.0,8.0,68,0.00,,,0.00,Wunderground v.1.15,2013-09-26 23:12:00,
2013-09-26 16:18:00,61.1,51.6,30.12,North,5,4.0,8.0,71,0.00,,,0.00,Wunderground v.1.15,2013-09-26 23:18:00,
2013-09-26 16:24:00,61.1,50.8,30.12,WNW,284,4.0,9.0,69,0.00,,,0.00,Wunderground v.1.15,2013-09-26 23:24:00,
2013-09-26 16:29:00,61.0,50.8,30.11,West,267,4.0,7.0,69,0.00,,,0.00,Wunderground v.1.15,2013-09-26 23:29:00,
2013-09-26 16:34:00,60.8,51.0,30.11,West,275,3.0,3.0,70,0.00,,,0.00,Wunderground v.1.15,2013-09-26 23:34:00,
2013-09-26 16:39:00,60.6,50.4,30.11,WSW,252,4.0,6.0,69,0.00,,,0.00,Wunderground v.1.15,2013-09-26 23:39:00,
2013-09-26 16:45:00,60.4,50.2,30.11,WSW,254,4.0,4.0,69,0.00,,,0.00,Wunderground v.1.15,2013-09-26 23:45:00,
2013-09-26 16:50:00,60.2,50.4,30.12,WNW,288,2.0,6.0,70,0.00,,,0.00,Wunderground v.1.15,2013-09-26 23:50:00,
2013-09-26 16:56:00,59.9,50.5,30.12,SW,231,3.0,6.0,71,0.00,,,0.00,Wunderground v.1.15,2013-09-26 23:56:00,
2013-09-26 17:01:00,59.8,50.4,30.12,WSW,237,3.0,6.0,71,0.00,,,0.00,Wunderground v.1.15,2013-09-27 00:01:00,
2013-09-26 17:06:00,59.6,50.2,30.12,SW,222,4.0,6.0,71,0.00,,,0.00,Wunderground v.1.15,2013-09-27 00:06:00,
2013-09-26 17:12:00,59.3,49.5,30.12,SW,232,4.0,8.0,70,0.00,,,0.00,Wunderground v.1.15,2013-09-27 00:12:00,
2013-09-26 17:18:00,59.1,50.1,30.12,SW,225,4.0,6.0,72,0.00,,,0.00,Wunderground v.1.15,2013-09-27 00:18:00,
2013-09-26 17:24:00,59.0,50.0,30.12,WSW,239,3.0,3.0,72,0.00,,,0.00,Wunderground v.1.15,2013-09-27 00:24:00,
2013-09-26 17:29:00,58.8,50.2,30.11,SW,235,3.0,5.0,73,0.00,,,0.00,Wunderground v.1.15,2013-09-27 00:29:00,
2013-09-26 17:35:00,58.6,49.6,30.11,SW,231,3.0,3.0,72,0.00,,,0.00,Wunderground v.1.15,2013-09-27 00:35:00,
2013-09-26 17:40:00,58.4,49.8,30.11,West,277,3.0,5.0,73,0.00,,,0.00,Wunderground v.1.15,2013-09-27 00:40:00,
2013-09-26 17:46:00,58.2,50.0,30.11,WSW,257,3.0,6.0,74,0.00,,,0.00,Wunderground v.1.15,2013-09-27 00:46:00,
2013-09-26 17:51:00,58.0,49.8,30.12,West,271,3.0,6.0,74,0.00,,,0.00,Wunderground v.1.15,2013-09-27 00:51:00,
2013-09-26 17:57:00,57.8,49.6,30.12,NW,320,3.0,6.0,74,0.00,,,0.00,Wunderground v.1.15,2013-09-27 00:57:00,
2013-09-26 18:02:00,57.6,49.7,30.12,WSW,250,2.0,6.0,75,0.00,,,0.00,Wunderground v.1.15,2013-09-27 01:02:00,
2013-09-26 18:07:00,57.4,48.4,30.12,WSW,238,2.0,3.0,72,0.00,,,0.00,Wunderground v.1.15,2013-09-27 01:07:00,
2013-09-26 18:14:00,57.1,48.5,30.12,SW,227,2.0,2.0,73,0.00,,,0.00,Wunderground v.1.15,2013-09-27 01:14:00,
2013-09-26 18:19:00,56.9,49.1,30.12,SW,234,2.0,3.0,75,0.00,,,0.00,Wunderground v.1.15,2013-09-27 01:19:00,
2013-09-26 18:24:00,56.7,48.5,30.12,SW,234,1.0,3.0,74,0.00,,,0.00,Wunderground v.1.15,2013-09-27 01:24:00,
2013-09-26 18:30:00,56.4,48.6,30.12,SW,235,2.0,3.0,75,0.00,,,0.00,Wunderground v.1.15,2013-09-27 01:30:00,
2013-09-26 18:35:00,56.1,48.6,30.12,SW,235,1.0,1.0,76,0.00,,,0.00,Wunderground v.1.15,2013-09-27 01:35:00,
2013-09-26 18:41:00,55.7,48.6,30.12,SW,235,0.0,1.0,77,0.00,,,0.00,Wunderground v.1.15,2013-09-27 01:41:00,
2013-09-26 18:46:00,55.3,48.2,30.13,SW,235,0.0,0.0,77,0.00,,,0.00,Wunderground v.1.15,2013-09-27 01:46:00,
2013-09-26 18:52:00,54.8,48.1,30.13,SW,235,0.0,0.0,78,0.00,,,0.00,Wunderground v.1.15,2013-09-27 01:52:00,
2013-09-26 18:57:00,54.4,48.0,30.13,SW,235,0.0,0.0,79,0.00,,,0.00,Wunderground v.1.15,2013-09-27 01:57:00,
2013-09-26 19:04:00,53.8,47.8,30.13,SW,235,0.0,0.0,80,0.00,,,0.00,Wunderground v.1.15,2013-09-27 02:04:00,
2013-09-26 19:09:00,53.4,47.7,30.13,SW,235,0.0,0.0,81,0.00,,,0.00,Wunderground v.1.15,2013-09-27 02:09:00,
2013-09-26 19:14:00,53.1,47.4,30.13,SW,235,0.0,0.0,81,0.00,,,0.00,Wunderground v.1.15,2013-09-27 02:14:00,
2013-09-26 19:20:00,52.7,47.7,30.13,SW,235,0.0,0.0,83,0.00,,,0.00,Wunderground v.1.15,2013-09-27 02:20:00,
2013-09-26 19:25:00,52.3,47.3,30.13,SW,235,0.0,0.0,83,0.00,,,0.00,Wunderground v.1.15,2013-09-27 02:25:00,
2013-09-26 19:31:00,51.8,47.1,30.13,SW,235,0.0,0.0,84,0.00,,,0.00,Wunderground v.1.15,2013-09-27 02:31:00,
2013-09-26 19:36:00,51.5,47.1,30.13,SW,235,0.0,0.0,85,0.00,,,0.00,Wunderground v.1.15,2013-09-27 02:36:00,
2013-09-26 19:42:00,51.2,46.8,30.14,SW,235,0.0,0.0,85,0.00,,,0.00,Wunderground v.1.15,2013-09-27 02:42:00,
2013-09-26 19:47:00,50.8,46.8,30.14,SW,235,0.0,0.0,86,0.00,,,0.00,Wunderground v.1.15,2013-09-27 02:47:00,
2013-09-26 19:52:00,50.5,46.8,30.14,SW,235,0.0,0.0,87,0.00,,,0.00,Wunderground v.1.15,2013-09-27 02:52:00,
2013-09-26 19:58:00,50.1,46.7,30.14,SW,235,0.0,0.0,88,0.00,,,0.00,Wunderground v.1.15,2013-09-27 02:58:00,
2013-09-26 20:04:00,49.9,46.8,30.15,SW,235,0.0,0.0,89,0.00,,,0.00,Wunderground v.1.15,2013-09-27 03:04:00,
2013-09-26 20:09:00,49.6,46.5,30.15,SW,235,0.0,0.0,89,0.00,,,0.00,Wunderground v.1.15,2013-09-27 03:09:00,
2013-09-26 20:14:00,49.5,46.7,30.15,SW,235,0.0,0.0,90,0.00,,,0.00,Wunderground v.1.15,2013-09-27 03:14:00,
2013-09-26 20:20:00,49.3,46.8,30.15,SW,235,0.0,0.0,91,0.00,,,0.00,Wunderground v.1.15,2013-09-27 03:20:00,
2013-09-26 20:25:00,49.2,46.7,30.15,SW,235,0.0,0.0,91,0.00,,,0.00,Wunderground v.1.15,2013-09-27 03:25:00,
2013-09-26 20:31:00,49.0,46.2,30.15,SW,235,0.0,0.0,90,0.00,,,0.00,Wunderground v.1.15,2013-09-27 03:31:00,
2013-09-26 20:36:00,48.8,46.3,30.15,SW,235,0.0,0.0,91,0.00,,,0.00,Wunderground v.1.15,2013-09-27 03:36:00,
2013-09-26 20:42:00,48.5,46.0,30.15,SW,235,0.0,0.0,91,0.00,,,0.00,Wunderground v.1.15,2013-09-27 03:42:00,
2013-09-26 20:47:00,48.4,45.9,30.15,SW,235,0.0,0.0,91,0.00,,,0.00,Wunderground v.1.15,2013-09-27 03:47:00,
2013-09-26 20:54:00,48.1,45.6,30.15,SW,235,0.0,0.0,91,0.00,,,0.00,Wunderground v.1.15,2013-09-27 03:54:00,
2013-09-26 20:59:00,47.9,45.4,30.14,SW,235,0.0,0.0,91,0.00,,,0.00,Wunderground v.1.15,2013-09-27 03:59:00,
2013-09-26 21:01:00,47.8,45.3,30.14,SW,235,0.0,0.0,91,0.00,,,0.00,Wunderground v.1.15,2013-09-27 04:01:00,
2013-09-26 21:02:00,47.8,45.3,30.14,SW,235,0.0,0.0,91,0.00,,,0.00,Wunderground v.1.15,2013-09-27 04:02:00,
2013-09-26 21:04:00,47.7,45.2,30.14,SW,235,0.0,0.0,91,0.00,,,0.00,Wunderground v.1.15,2013-09-27 04:04:00,
2013-09-26 21:09:00,47.6,45.1,30.14,SW,235,0.0,0.0,91,0.00,,,0.00,Wunderground v.1.15,2013-09-27 04:09:00,
2013-09-26 21:11:00,47.5,45.0,30.14,SW,235,0.0,0.0,91,0.00,,,0.00,Wunderground v.1.15,2013-09-27 04:11:00,
2013-09-26 21:16:00,47.3,44.8,30.14,SW,235,0.0,0.0,91,0.00,,,0.00,Wunderground v.1.15,2013-09-27 04:16:00,
2013-09-26 21:22:00,47.1,44.9,30.15,SW,235,0.0,1.0,92,0.00,,,0.00,Wunderground v.1.15,2013-09-27 04:22:00,
2013-09-26 21:29:00,46.9,44.7,30.15,SW,235,0.0,0.0,92,0.00,,,0.00,Wunderground v.1.15,2013-09-27 04:29:00,
2013-09-26 21:34:00,46.7,44.5,30.15,SW,235,0.0,0.0,92,0.00,,,0.00,Wunderground v.1.15,2013-09-27 04:34:00,
2013-09-26 21:39:00,46.7,44.8,30.15,SW,235,0.0,0.0,93,0.00,,,0.00,Wunderground v.1.15,2013-09-27 04:39:00,
2013-09-26 21:44:00,46.6,44.7,30.15,SW,235,0.0,0.0,93,0.00,,,0.00,Wunderground v.1.15,2013-09-27 04:44:00,
2013-09-26 21:49:00,46.6,45.0,30.16,SW,235,0.0,0.0,94,0.00,,,0.00,Wunderground v.1.15,2013-09-27 04:49:00,
2013-09-26 21:54:00,46.6,45.0,30.16,SW,235,0.0,0.0,94,0.00,,,0.00,Wunderground v.1.15,2013-09-27 04:54:00,
2013-09-26 22:00:00,46.7,45.1,30.15,SW,235,0.0,0.0,94,0.00,,,0.00,Wunderground v.1.15,2013-09-27 05:00:00,
2013-09-26 22:05:00,46.7,45.1,30.15,SW,235,0.0,0.0,94,0.00,,,0.00,Wunderground v.1.15,2013-09-27 05:05:00,
2013-09-26 22:10:00,46.7,45.1,30.15,SW,235,0.0,0.0,94,0.00,,,0.00,Wunderground v.1.15,2013-09-27 05:10:00,
2013-09-26 22:16:00,46.6,45.0,30.15,SW,235,0.0,0.0,94,0.00,,,0.00,Wunderground v.1.15,2013-09-27 05:16:00,
2013-09-26 22:21:00,46.6,45.0,30.15,SW,235,1.0,3.0,94,0.00,,,0.00,Wunderground v.1.15,2013-09-27 05:21:00,
2013-09-26 22:26:00,46.5,44.9,30.15,SW,235,1.0,1.0,94,0.00,,,0.00,Wunderground v.1.15,2013-09-27 05:26:00,
2013-09-26 22:32:00,46.4,44.8,30.15,SW,235,0.0,1.0,94,0.00,,,0.00,Wunderground v.1.15,2013-09-27 05:32:00,
2013-09-26 22:38:00,46.2,44.6,30.15,SW,235,1.0,2.0,94,0.00,,,0.00,Wunderground v.1.15,2013-09-27 05:38:00,
2013-09-26 22:44:00,46.0,44.4,30.15,SW,235,1.0,2.0,94,0.00,,,0.00,Wunderground v.1.15,2013-09-27 05:44:00,
2013-09-26 22:49:00,45.9,44.3,30.15,SW,235,0.0,1.0,94,0.00,,,0.00,Wunderground v.1.15,2013-09-27 05:49:00,
2013-09-26 22:54:00,45.8,44.2,30.15,SW,235,0.0,1.0,94,0.00,,,0.00,Wunderground v.1.15,2013-09-27 05:54:00,
2013-09-26 22:59:00,45.7,44.1,30.15,SW,235,1.0,1.0,94,0.00,,,0.00,Wunderground v.1.15,2013-09-27 05:59:00,
2013-09-26 23:05:00,45.6,44.0,30.15,SW,235,0.0,0.0,94,0.00,,,0.00,Wunderground v.1.15,2013-09-27 06:05:00,
2013-09-26 23:10:00,45.6,44.3,30.15,SW,235,0.0,0.0,95,0.00,,,0.00,Wunderground v.1.15,2013-09-27 06:10:00,
2013-09-26 23:15:00,45.6,44.3,30.15,SW,235,0.0,2.0,95,0.00,,,0.00,Wunderground v.1.15,2013-09-27 06:15:00,
2013-09-26 23:20:00,45.8,44.4,30.15,SW,235,0.0,2.0,95,0.00,,,0.00,Wunderground v.1.15,2013-09-27 06:20:00,
2013-09-26 23:26:00,46.0,44.9,30.15,SW,235,1.0,1.0,96,0.00,,,0.00,Wunderground v.1.15,2013-09-27 06:26:00,
2013-09-26 23:31:00,46.2,45.1,30.15,SW,235,0.0,1.0,96,0.00,,,0.00,Wunderground v.1.15,2013-09-27 06:31:00,
2013-09-26 23:36:00,46.4,45.3,30.15,SW,235,0.0,0.0,96,0.00,,,0.00,Wunderground v.1.15,2013-09-27 06:36:00,
2013-09-26 23:42:00,46.6,45.5,30.15,SW,235,0.0,0.0,96,0.00,,,0.00,Wunderground v.1.15,2013-09-27 06:42:00,
2013-09-26 23:48:00,46.7,45.6,30.15,SW,235,0.0,0.0,96,0.00,,,0.00,Wunderground v.1.15,2013-09-27 06:48:00,
2013-09-26 23:54:00,46.9,45.8,30.15,SW,235,0.0,0.0,96,0.00,,,0.00,Wunderground v.1.15,2013-09-27 06:54:00,
2013-09-26 23:59:00,47.0,45.9,30.15,SW,235,0.0,0.0,96,0.00,,,0.00,Wunderground v.1.15,2013-09-27 06:59:00,